Regional Weather Roundup
Issued by NWS

Home | Current Version | Previous Version | Graphics & Text | Print | Product List | Glossary On
Versions: 1 2 3 4 5 6 7 8 9 10 11 12 13 14 15 16 17 18 19 20 21 22 23 24 25 26 27 28 29 30 31 32 33 34 35 36 37 38 39 40 41 42 43 44 45 46 47 48 49 50
000
ASUS43 KLSX 201610
RWRMO

WEATHER SUMMARY FOR MISSOURI
NATIONAL WEATHER SERVICE SPRINGFIELD MO
1000 AM CST FRI JAN 20 2017

NOTE: "FAIR" INDICATES FEW OR NO CLOUDS BELOW 12,000 FEET WITH NO
       SIGNIFICANT WEATHER AND/OR OBSTRUCTIONS TO VISIBILITY.
       CURRENT SKY AND/OR WEATHER CONDITIONS ARE NOT AVAILABLE FOR
       CHILLICOTHE AND FARMINGTON.

MOZ001>031-035>038-043-044-053-054-201700-
...NORTHERN AND WESTERN MISSOURI...

CITY           SKY/WX    TMP DP  RH WIND       PRES   REMARKS
KANSAS CTY INT FOG       46  44  93 SE8       29.56S VSB 1/8
KANSAS C DTWN  CLOUDY    48  48 100 E5        29.56R
LEE`S SUMMIT   CLOUDY    47  32  56 SE7       29.57R HAZE
ST JOSEPH      CLOUDY    45  45 100 E5        29.56S FOG
CHILLICOTHE      N/A     43  43 100 VRB5      29.61F
KIRKSVILLE     FOG       42  42 100 CALM      29.63F VSB 1/4

$$
MOZ066>068-077>081-088>096-101>105-201700-
...SOUTHWEST MISSOURI...

CITY           SKY/WX    TMP DP  RH WIND       PRES   REMARKS
SPRINGFIELD    CLOUDY    50  47  89 S14       29.60R
JOPLIN         CLOUDY    52  49  89 SE10      29.56S
BRANSON        CLOUDY    48  48 100 SE7       29.61S FOG

$$
MOZ032>034-039>042-045>050-055>058-069>072-201700-
...CENTRAL MISSOURI...

CITY           SKY/WX    TMP DP  RH WIND       PRES   REMARKS
COLUMBIA       CLOUDY    49  49 100 SE6       29.61F FOG
JEFFERSON CITY CLOUDY    51  49  92 SE6       29.62F
ROLLA          CLOUDY    48  48 100 S8        29.62F
SEDALIA        CLOUDY    48  47  96 SE8       29.59F FOG
WHITEMAN AFB   CLOUDY    46  46 100 S5        29.58S FOG
WARRENSBURG    CLOUDY    46  45  93 SE5       29.59R FOG
OSAGE BEACH    CLOUDY    50  48  93 SE7       29.61F

$$
MOZ051-052-059>065-201700-
...EAST CENTRAL MISSOURI...

CITY           SKY/WX    TMP DP  RH WIND       PRES   REMARKS
ST LOUIS INTL  CLOUDY    51  48  89 S9        29.68R
SPIRIT OF STL  CLOUDY    51  49  92 CALM      29.66S
ST CHARLES     CLOUDY    49  49 100 S6        29.67S

$$
MOZ072>076-082>087-097>100-106>115-201700-
...SOUTH CENTRAL AND SOUTHEAST MISSOURI...

CITY           SKY/WX    TMP DP  RH WIND       PRES   REMARKS
CAPE GIRARDEAU CLOUDY    53  51  93 S8        29.72S
FARMINGTON     CLOUDY    50  47  89 S12       29.69S
POPLAR BLUFF   CLOUDY    53  52  96 S3        29.71R FOG
WEST PLAINS    CLOUDY    50  48  93 SE7       29.64F

$$



USA.gov is the U.S. government's official web portal to all federal, state and local government web resources and services.